Milwaukee, WI

12:39 AM CDT on September 25, 2016 (GMT -0500)
Timmerman

Weather History for KMWC - November, 2013

Change the Weather History Date:

Wednesday, November 6, 2013

  Actual Average Record
Temperature  
Mean Temperature 44 °F -  
Max Temperature 55 °F 49 °F 70 °F (1975)
Min Temperature 32 °F 32 °F 6 °F (1951)
Degree Days  
Heating Degree Days 22    
Moisture  
Dew Point 39 °F    
Average Humidity 81    
Maximum Humidity 94    
Minimum Humidity 65    
Precipitation  
Precipitation 0.05 in - - ()
Sea Level Pressure  
Sea Level Pressure 29.93 in    
Wind  
Wind Speed 13 mph (WSW)    
Max Wind Speed 17 mph    
Max Gust Speed 30 mph    
Visibility 9 miles    
Events Rain    
Averages and records for this station are not official NWS values.
T = Trace of Precipitation, MM = Missing Value Source: NWS Daily Summary

Daily Weather History Graph

Daily Weather History Graph

Search for Another Location

Airport or City:

Trip Planner

Search our weather history database for the weather conditions in past years. The results will help you decide how hot, cold, wet, or windy it might be!

Date:

Astronomy

Nov. 06, 2013 Rise Set
Actual Time 6:33 AM CST 4:37 PM CST
Civil Twilight 6:03 AM CST 5:07 PM CST
Nautical Twilight 5:29 AM CST 5:41 PM CST
Astronomical Twilight 4:56 AM CST 6:14 PM CST
Moon 9:50 AM CST (11/6) 7:39 PM CST (11/6)
Length of Visible Light 11h 03m
Length of Day
10h 03m
Waxing Crescent, 14% of the Moon is Illuminated
Nov 6
Waxing Crescent
Nov 9
First Quarter
Nov 17
Full
Nov 25
Last Quarter
Dec 2
New

Hourly Weather History & Observations

Time (CST) Temp. Windchill Dew Point Humidity Pressure Visibility Wind Dir Wind Speed Gust Speed Precip Events Conditions
12:15 AM 51.8 °F - 46.4 °F 82% 29.90 in 10.0 mi South 12.7 mph 18.4 mph N/A   Drizzle
12:35 AM 51.8 °F - 46.4 °F 82% 29.89 in 10.0 mi South 16.1 mph 19.6 mph N/A   Drizzle
12:55 AM 51.8 °F - 46.4 °F 82% 29.88 in 10.0 mi South 13.8 mph 23.0 mph N/A Rain Light Rain
1:15 AM 51.8 °F - 46.4 °F 82% 29.88 in 7.0 mi South 12.7 mph 20.7 mph 0.02 in Rain Light Rain
1:35 AM 51.8 °F - 48.2 °F 88% 29.86 in 7.0 mi South 11.5 mph 23.0 mph 0.02 in Rain Rain
1:55 AM 51.8 °F - 48.2 °F 88% 29.85 in 7.0 mi South 15.0 mph 21.9 mph 0.03 in Rain Light Rain
2:15 AM 51.8 °F - 48.2 °F 88% 29.84 in 7.0 mi South 15.0 mph 21.9 mph 0.02 in Rain Rain
2:35 AM 51.8 °F - 48.2 °F 88% 29.82 in 10.0 mi SSW 13.8 mph 17.3 mph 0.02 in   Overcast
2:55 AM 51.8 °F - 48.2 °F 88% 29.81 in 10.0 mi SSW 13.8 mph 21.9 mph 0.02 in   Overcast
3:15 AM 51.8 °F - 50.0 °F 94% 29.81 in 10.0 mi SSW 12.7 mph 23.0 mph N/A   Overcast
3:35 AM 51.8 °F - 50.0 °F 94% 29.80 in 5.0 mi SSW 13.8 mph 18.4 mph N/A   Overcast
3:55 AM 51.8 °F - 50.0 °F 94% 29.80 in 10.0 mi SSW 15.0 mph 21.9 mph N/A   Overcast
4:15 AM 51.8 °F - 50.0 °F 94% 29.79 in 10.0 mi SSW 12.7 mph - N/A Rain Rain
4:35 AM 53.6 °F - 50.0 °F 88% 29.79 in 10.0 mi SSW 11.5 mph 20.7 mph N/A   Overcast
4:55 AM 53.6 °F - 50.0 °F 88% 29.78 in 10.0 mi SSW 13.8 mph 17.3 mph N/A   Overcast
5:15 AM 51.8 °F - 50.0 °F 94% 29.78 in 10.0 mi SSW 11.5 mph 18.4 mph N/A Rain Rain
5:35 AM 51.8 °F - 50.0 °F 94% 29.77 in 7.0 mi SSW 11.5 mph 19.6 mph N/A Rain Rain
5:55 AM 51.8 °F - 50.0 °F 94% 29.76 in 10.0 mi SSW 11.5 mph 19.6 mph N/A   Drizzle
6:45 AM 53.6 °F - 51.8 °F 94% 29.75 in 5.0 mi SSW 11.5 mph 17.3 mph N/A Rain Light Rain
7:45 AM 53.6 °F - 51.8 °F 94% 29.74 in 7.0 mi South 15.0 mph 21.9 mph N/A Rain Light Rain
8:45 AM 55.4 °F - 51.8 °F 88% 29.74 in 7.0 mi SSW 13.8 mph 19.6 mph N/A Rain Light Rain
9:45 AM 48.2 °F - 46.4 °F 93% 29.75 in 5.0 mi West 13.8 mph 29.9 mph N/A Rain Light Rain
10:45 AM 41.0 °F 33.1 °F 37.4 °F 87% 29.81 in 2.0 mi WNW 15.0 mph - N/A Rain Heavy Rain
11:45 AM 39.2 °F 30.2 °F 37.4 °F 93% 29.82 in 5.0 mi NW 17.3 mph 24.2 mph N/A Rain Light Rain
12:45 PM 39.2 °F 31.2 °F 35.6 °F 87% 29.86 in 10.0 mi NW 13.8 mph 21.9 mph N/A   Overcast
1:45 PM 41.0 °F 34.3 °F 35.6 °F 81% 29.89 in 10.0 mi NW 11.5 mph 19.6 mph N/A   Overcast
2:45 PM 41.0 °F 34.3 °F 35.6 °F 81% 29.94 in 10.0 mi NW 11.5 mph 17.3 mph N/A   Overcast
3:45 PM 41.0 °F 34.3 °F 35.6 °F 81% 29.98 in 10.0 mi WNW 11.5 mph 17.3 mph N/A   Overcast
4:45 PM 41.0 °F 35.2 °F 33.8 °F 76% 30.00 in 10.0 mi WNW 9.2 mph - N/A   Overcast
5:45 PM 41.0 °F 33.9 °F 33.8 °F 76% 30.03 in 10.0 mi West 12.7 mph 17.3 mph N/A   Overcast
6:45 PM 39.2 °F 31.6 °F 30.2 °F 70% 30.06 in 10.0 mi WNW 12.7 mph - N/A   Scattered Clouds
7:45 PM 37.4 °F 30.3 °F 26.6 °F 65% 30.07 in 10.0 mi West 10.4 mph - N/A   Clear
8:15 PM 35.6 °F 28.0 °F 28.4 °F 75% 30.08 in 10.0 mi West 10.4 mph - N/A   Clear
8:35 PM 35.6 °F 28.0 °F 26.6 °F 70% 30.08 in 10.0 mi WNW 10.4 mph 17.3 mph N/A   Clear
8:45 PM 35.6 °F 27.5 °F 26.6 °F 70% 30.08 in 10.0 mi WNW 11.5 mph 17.3 mph N/A   Clear
8:55 PM 35.6 °F 26.6 °F 24.8 °F 65% 30.10 in 10.0 mi WNW 13.8 mph - N/A   Clear
9:15 PM 33.8 °F 25.3 °F 23.0 °F 65% 30.10 in 10.0 mi NW 11.5 mph 20.7 mph N/A   Clear
9:35 PM 33.8 °F 26.4 °F 23.0 °F 65% 30.11 in 10.0 mi NW 9.2 mph - N/A   Clear
9:55 PM 33.8 °F 26.4 °F 23.0 °F 65% 30.12 in 10.0 mi NW 9.2 mph - N/A   Clear
10:15 PM 32.0 °F 24.8 °F 23.0 °F 69% 30.13 in 10.0 mi WNW 8.1 mph - N/A   Clear
10:35 PM 32.0 °F 25.6 °F 23.0 °F 69% 30.13 in 10.0 mi WNW 6.9 mph - N/A   Clear
10:55 PM 32.0 °F 25.6 °F 23.0 °F 69% 30.13 in 10.0 mi WNW 6.9 mph - N/A   Clear
11:15 PM 32.0 °F 25.6 °F 23.0 °F 69% 30.13 in 10.0 mi West 6.9 mph - N/A   Clear
11:35 PM 32.0 °F 25.6 °F 23.0 °F 69% 30.13 in 10.0 mi West 6.9 mph - N/A   Clear
11:55 PM 32.0 °F 26.4 °F 23.0 °F 69% 30.14 in 10.0 mi West 5.8 mph - N/A   Clear